When you browse on this site, cookies collect data to enhance your experience and personalize the content and advertising you see.
Visit our Privacy Policy to learn more. By continuing to use the site, you agree to this use of cookies and data.
  • In Österreich
  • Länderverzeichnis
  • Für 7 Tage
  • Wassertemperatur
  • Wetterkarte
  • News
  • Widgets
  • user-avatar
    Anmelden

    Stündliche Wetter Kaprun

    Heute, 22 Januar, Mittwoch

    Zeit Temperatur Niederschläge Wind Luftdruck Luftfeuchtigkeit
    00:00 -5°C° 0 mm 2 m/S 605 mmHg 36%
    01:00 -5°C° 0 mm 2 m/S 604 mmHg 37%
    02:00 -5°C° 0 mm 2 m/S 604 mmHg 36%
    03:00 -5°C° 0 mm 2 m/S 604 mmHg 36%
    04:00 -5°C° 0 mm 2 m/S 603 mmHg 35%
    05:00 -5°C° 0 mm 2 m/S 603 mmHg 35%
    06:00 -5°C° 0 mm 2 m/S 603 mmHg 34%
    07:00 -5°C° 0 mm 2 m/S 603 mmHg 34%
    08:00 -1°C° 0 mm 1 m/S 603 mmHg 40%
    09:00 0°C° 0 mm 1 m/S 604 mmHg 46%
    10:00 +1°C° 0 mm 1 m/S 604 mmHg 51%
    11:00 +2°C° 0 mm 1 m/S 604 mmHg 61%
    12:00 +2°C° 0 mm 1 m/S 604 mmHg 71%
    13:00 +2°C° 0 mm 1 m/S 604 mmHg 80%
    14:00 +1°C° 0 mm 1 m/S 603 mmHg 72%
    15:00 0°C° 0 mm 1 m/S 603 mmHg 64%
    16:00 -1°C° 0 mm 1 m/S 602 mmHg 56%
    17:00 -2°C° 0 mm 1 m/S 602 mmHg 53%
    18:00 -3°C° 0 mm 1 m/S 601 mmHg 51%
    19:00 -4°C° 0 mm 1 m/S 601 mmHg 48%
    20:00 -6°C° 0 mm 2 m/S 601 mmHg 48%
    21:00 -6°C° 0 mm 2 m/S 601 mmHg 49%
    22:00 -6°C° 0 mm 2 m/S 601 mmHg 49%
    23:00 -6°C° 0 mm 2 m/S 601 mmHg 48%

    Morgen, 23 Januar, Donnerstag

    Zeit Temperatur Niederschläge Wind Luftdruck Luftfeuchtigkeit
    00:00 -6°C° 0 mm 2 m/S 602 mmHg 47%
    01:00 -4°C° 0 mm 1 m/S 602 mmHg 45%
    02:00 -4°C° 0 mm 1 m/S 601 mmHg 44%
    03:00 -4°C° 0 mm 1 m/S 601 mmHg 43%
    04:00 -6°C° 0 mm 1 m/S 601 mmHg 41%
    05:00 -4°C° 0 mm 1 m/S 601 mmHg 40%
    06:00 -4°C° 0 mm 1 m/S 601 mmHg 40%
    07:00 -4°C° 0 mm 1 m/S 601 mmHg 39%
    08:00 -3°C° 0 mm 1 m/S 602 mmHg 44%
    09:00 -2°C° 0 mm 1 m/S 602 mmHg 48%
    10:00 0°C° 0 mm 1 m/S 603 mmHg 53%
    11:00 0°C° 0 mm 1 m/S 603 mmHg 60%
    12:00 +1°C° 0 mm 1 m/S 602 mmHg 67%
    13:00 +2°C° 0 mm 1 m/S 602 mmHg 74%
    14:00 +1°C° 0 mm 1 m/S 602 mmHg 70%
    15:00 -2°C° 0 mm 2 m/S 601 mmHg 65%
    16:00 -3°C° 0 mm 2 m/S 600 mmHg 61%
    17:00 -4°C° 0 mm 2 m/S 600 mmHg 57%
    18:00 -4°C° 0 mm 2 m/S 600 mmHg 54%
    19:00 -5°C° 0 mm 2 m/S 599 mmHg 50%
    20:00 -5°C° 0 mm 2 m/S 599 mmHg 49%
    21:00 -5°C° 0 mm 2 m/S 599 mmHg 47%
    22:00 -5°C° 0 mm 2 m/S 599 mmHg 46%
    23:00 -5°C° 0 mm 2 m/S 599 mmHg 45%

    übermorgen, 24 Januar, Freitag

    Zeit Temperatur Niederschläge Wind Luftdruck Luftfeuchtigkeit
    00:00 -5°C° 0 mm 2 m/S 599 mmHg 44%
    01:00 -5°C° 0 mm 2 m/S 599 mmHg 43%
    02:00 -5°C° 0 mm 2 m/S 599 mmHg 41%
    03:00 -3°C° 0 mm 1 m/S 598 mmHg 40%
    04:00 -3°C° 0 mm 1 m/S 598 mmHg 39%
    05:00 -3°C° 0 mm 1 m/S 598 mmHg 38%
    06:00 -3°C° 0 mm 1 m/S 598 mmHg 38%
    07:00 -3°C° 0 mm 1 m/S 598 mmHg 38%
    08:00 -2°C° 0 mm 1 m/S 598 mmHg 44%
    09:00 -1°C° 0 mm 1 m/S 599 mmHg 51%
    10:00 +1°C° 0 mm 1 m/S 599 mmHg 58%
    11:00 +1°C° 0 mm 1 m/S 599 mmHg 65%
    12:00 +2°C° 0 mm 1 m/S 599 mmHg 73%
    13:00 +3°C° 0 mm 1 m/S 599 mmHg 81%
    14:00 +1°C° 0 mm 2 m/S 599 mmHg 77%
    15:00 -1°C° 0 mm 2 m/S 598 mmHg 74%
    16:00 -2°C° 0 mm 2 m/S 598 mmHg 70%
    17:00 -2°C° 0 mm 2 m/S 597 mmHg 69%
    18:00 -3°C° 0 mm 2 m/S 597 mmHg 68%
    19:00 -4°C° 0 mm 2 m/S 597 mmHg 67%
    20:00 -4°C° 0 mm 2 m/S 597 mmHg 68%
    21:00 -4°C° 0 mm 2 m/S 597 mmHg 70%
    22:00 -4°C° 0 mm 2 m/S 597 mmHg 71%
    23:00 -4°C° 0 mm 2 m/S 597 mmHg 72%

    25 Januar, Samstag

    Zeit Temperatur Niederschläge Wind Luftdruck Luftfeuchtigkeit
    00:00 -4°C° 0 mm 2 m/S 597 mmHg 73%
    01:00 -4°C° 0 mm 2 m/S 597 mmHg 74%
    02:00 -5°C° 0 mm 2 m/S 596 mmHg 76%
    03:00 -5°C° 0 mm 2 m/S 596 mmHg 78%
    04:00 -3°C° 0 mm 1 m/S 596 mmHg 80%
    05:00 -3°C° 0.1 mm 1 m/S 596 mmHg 83%
    06:00 -3°C° 0.1 mm 1 m/S 596 mmHg 87%
    07:00 -3°C° 0.1 mm 1 m/S 596 mmHg 90%
    08:00 -3°C° 0.4 mm 1 m/S 596 mmHg 92%
    09:00 -3°C° 0.4 mm 1 m/S 596 mmHg 94%
    10:00 -2°C° 0.4 mm 1 m/S 597 mmHg 96%
    11:00 -2°C° 0.4 mm 1 m/S 597 mmHg 96%
    12:00 -2°C° 0.4 mm 1 m/S 597 mmHg 96%
    13:00 -1°C° 0.4 mm 1 m/S 596 mmHg 97%
    14:00 -1°C° 0.1 mm 1 m/S 596 mmHg 97%
    15:00 -2°C° 0.1 mm 1 m/S 596 mmHg 97%
    16:00 -2°C° 0.1 mm 1 m/S 596 mmHg 97%
    17:00 -2°C° 0.1 mm 1 m/S 596 mmHg 97%
    18:00 -3°C° 0.1 mm 1 m/S 595 mmHg 97%
    19:00 -4°C° 0.1 mm 0 m/S 595 mmHg 97%
    20:00 -3°C° 0.1 mm 1 m/S 595 mmHg 96%
    21:00 -4°C° 0.1 mm 1 m/S 595 mmHg 95%
    22:00 -4°C° 0.1 mm 1 m/S 595 mmHg 94%
    23:00 -4°C° 0.1 mm 1 m/S 595 mmHg 93%

    26 Januar, Sonntag

    Zeit Temperatur Niederschläge Wind Luftdruck Luftfeuchtigkeit
    00:00 -4°C° 0.1 mm 1 m/S 595 mmHg 93%
    01:00 -4°C° 0.1 mm 1 m/S 595 mmHg 93%
    02:00 -4°C° 0.1 mm 1 m/S 595 mmHg 93%
    03:00 -4°C° 0.1 mm 1 m/S 595 mmHg 93%
    04:00 -4°C° 0.1 mm 1 m/S 595 mmHg 93%
    05:00 -4°C° 0.1 mm 1 m/S 595 mmHg 93%
    06:00 -4°C° 0.1 mm 1 m/S 595 mmHg 93%
    07:00 -4°C° 0.1 mm 1 m/S 595 mmHg 93%
    08:00 -3°C° 0 mm 1 m/S 595 mmHg 91%
    09:00 -2°C° 0 mm 1 m/S 596 mmHg 89%
    10:00 -3°C° 0 mm 0 m/S 597 mmHg 88%
    11:00 -2°C° 0 mm 0 m/S 596 mmHg 88%
    12:00 -2°C° 0 mm 0 m/S 596 mmHg 89%
    13:00 -2°C° 0 mm 0 m/S 596 mmHg 90%
    14:00 -1°C° 0 mm 1 m/S 596 mmHg 92%
    15:00 -2°C° 0 mm 1 m/S 596 mmHg 93%
    16:00 -2°C° 0 mm 1 m/S 596 mmHg 95%
    17:00 -3°C° 0 mm 1 m/S 596 mmHg 94%
    18:00 -3°C° 0 mm 1 m/S 596 mmHg 94%
    19:00 -4°C° 0 mm 1 m/S 596 mmHg 93%
    20:00 -4°C° 0 mm 1 m/S 596 mmHg 92%
    21:00 -4°C° 0 mm 1 m/S 597 mmHg 91%
    22:00 -4°C° 0 mm 1 m/S 597 mmHg 90%
    23:00 -6°C° 0 mm 1 m/S 597 mmHg 89%

    27 Januar, Montag

    Zeit Temperatur Niederschläge Wind Luftdruck Luftfeuchtigkeit
    00:00 -6°C° 0 mm 1 m/S 597 mmHg 89%
    01:00 -6°C° 0 mm 1 m/S 597 mmHg 89%
    02:00 -6°C° 0 mm 1 m/S 597 mmHg 89%
    03:00 -7°C° 0 mm 1 m/S 597 mmHg 88%
    04:00 -7°C° 0 mm 1 m/S 597 mmHg 88%
    05:00 -7°C° 0 mm 1 m/S 597 mmHg 85%
    06:00 -7°C° 0 mm 1 m/S 597 mmHg 83%
    07:00 -6°C° 0 mm 1 m/S 597 mmHg 81%
    08:00 -4°C° 0 mm 1 m/S 598 mmHg 79%
    09:00 -3°C° 0 mm 1 m/S 599 mmHg 76%
    10:00 -2°C° 0 mm 1 m/S 600 mmHg 74%
    11:00 -1°C° 0 mm 1 m/S 600 mmHg 77%
    12:00 0°C° 0 mm 1 m/S 600 mmHg 80%
    13:00 0°C° 0 mm 1 m/S 599 mmHg 82%
    14:00 0°C° 0 mm 1 m/S 599 mmHg 81%
    15:00 -1°C° 0 mm 1 m/S 598 mmHg 80%
    16:00 -3°C° 0 mm 2 m/S 598 mmHg 79%
    17:00 -4°C° 0 mm 2 m/S 598 mmHg 76%
    18:00 -5°C° 0 mm 2 m/S 597 mmHg 73%
    19:00 -6°C° 0 mm 2 m/S 597 mmHg 70%
    20:00 -6°C° 0 mm 2 m/S 597 mmHg 67%
    21:00 -6°C° 0 mm 2 m/S 597 mmHg 65%
    22:00 -6°C° 0 mm 2 m/S 597 mmHg 63%
    23:00 -6°C° 0 mm 2 m/S 597 mmHg 63%
    Mehr zeigen